• In United Kingdom
  • List of Countries
  • For 7 days
  • Water Temperature
  • Satellite Maps
  • Weather Map
  • Weather Widgets
  • user-avatar
    Login

    Hourly Weather Kalgoorlie

    Today, 14 December, Thursday

    Time Temperature Precipitation Wind Pressure Humidity
    00:00 +21°C° 0 mm 8 mps 730 mmHg 48%
    01:00 +20°C° 0 mm 8 mps 730 mmHg 52%
    02:00 +18°C° 0 mm 7 mps 730 mmHg 57%
    03:00 +17°C° 0 mm 6 mps 730 mmHg 59%
    04:00 +17°C° 0 mm 6 mps 730 mmHg 62%
    05:00 +16°C° 0 mm 5 mps 730 mmHg 64%
    06:00 +19°C° 0 mm 5 mps 730 mmHg 60%
    07:00 +20°C° 0 mm 4 mps 731 mmHg 55%
    08:00 +21°C° 0 mm 4 mps 731 mmHg 55%
    09:00 +23°C° 0 mm 4 mps 731 mmHg 49%
    10:00 +25°C° 0 mm 3 mps 730 mmHg 42%
    11:00 +27°C° 0 mm 2 mps 730 mmHg 36%
    12:00 +28°C° 0 mm 1 mps 729 mmHg 32%
    13:00 +30°C° 0 mm 1 mps 729 mmHg 28%
    14:00 +29°C° 0 mm 0 mps 728 mmHg 24%
    15:00 +30°C° 0 mm 0 mps 728 mmHg 23%
    16:00 +32°C° 0 mm 1 mps 728 mmHg 22%
    17:00 +32°C° 0 mm 1 mps 727 mmHg 21%
    18:00 +32°C° 0 mm 2 mps 727 mmHg 21%
    19:00 +31°C° 0 mm 3 mps 727 mmHg 22%
    20:00 +31°C° 0 mm 3 mps 727 mmHg 22%
    21:00 +30°C° 0 mm 4 mps 727 mmHg 23%
    22:00 +29°C° 0 mm 5 mps 728 mmHg 25%
    23:00 +29°C° 0 mm 5 mps 728 mmHg 26%

    Tomorrow, 15 December, Friday

    Time Temperature Precipitation Wind Pressure Humidity
    00:00 +28°C° 0 mm 5 mps 727 mmHg 27%
    01:00 +27°C° 0 mm 6 mps 727 mmHg 28%
    02:00 +26°C° 0 mm 6 mps 727 mmHg 30%
    03:00 +26°C° 0 mm 6 mps 727 mmHg 31%
    04:00 +25°C° 0 mm 5 mps 727 mmHg 32%
    05:00 +23°C° 0 mm 5 mps 727 mmHg 33%
    06:00 +26°C° 0 mm 5 mps 727 mmHg 31%
    07:00 +28°C° 0 mm 6 mps 727 mmHg 28%
    08:00 +29°C° 0 mm 6 mps 728 mmHg 25%
    09:00 +32°C° 0 mm 6 mps 727 mmHg 23%
    10:00 +34°C° 0 mm 5 mps 727 mmHg 21%
    11:00 +36°C° 0 mm 5 mps 726 mmHg 19%
    12:00 +37°C° 0 mm 4 mps 726 mmHg 18%
    13:00 +38°C° 0 mm 4 mps 725 mmHg 17%
    14:00 +40°C° 0 mm 4 mps 724 mmHg 17%
    15:00 +39°C° 0 mm 3 mps 724 mmHg 17%
    16:00 +38°C° 0 mm 2 mps 723 mmHg 17%
    17:00 +38°C° 0 mm 2 mps 723 mmHg 17%
    18:00 +37°C° 0 mm 2 mps 723 mmHg 18%
    19:00 +37°C° 0 mm 3 mps 723 mmHg 20%
    20:00 +36°C° 0 mm 4 mps 723 mmHg 21%
    21:00 +35°C° 0 mm 4 mps 723 mmHg 23%
    22:00 +34°C° 0 mm 5 mps 723 mmHg 26%
    23:00 +32°C° 0 mm 5 mps 723 mmHg 28%

    Day after tomorrow, 16 December, Saturday

    Time Temperature Precipitation Wind Pressure Humidity
    00:00 +30°C° 0 mm 6 mps 723 mmHg 32%
    01:00 +28°C° 0 mm 7 mps 723 mmHg 35%
    02:00 +27°C° 0 mm 8 mps 722 mmHg 39%
    03:00 +26°C° 0 mm 8 mps 722 mmHg 40%
    04:00 +26°C° 0 mm 8 mps 722 mmHg 41%
    05:00 +24°C° 0 mm 7 mps 722 mmHg 41%
    06:00 +28°C° 0 mm 7 mps 722 mmHg 34%
    07:00 +32°C° 0 mm 7 mps 722 mmHg 27%
    08:00 +35°C° 0 mm 6 mps 722 mmHg 20%
    09:00 +39°C° 0 mm 8 mps 722 mmHg 16%
    10:00 +42°C° 0 mm 9 mps 722 mmHg 13%
    11:00 +44°C° 0 mm 10 mps 721 mmHg 9%
    12:00 +44°C° 0 mm 10 mps 721 mmHg 9%
    13:00 +46°C° 0 mm 11 mps 720 mmHg 9%
    14:00 +46°C° 0 mm 11 mps 720 mmHg 8%
    15:00 +44°C° 0 mm 11 mps 719 mmHg 8%
    16:00 +44°C° 0 mm 11 mps 719 mmHg 8%
    17:00 +43°C° 0 mm 11 mps 719 mmHg 8%
    18:00 +42°C° 0 mm 10 mps 719 mmHg 9%
    19:00 +39°C° 0 mm 8 mps 719 mmHg 10%
    20:00 +38°C° 0 mm 7 mps 719 mmHg 11%
    21:00 +36°C° 0 mm 7 mps 720 mmHg 12%
    22:00 +34°C° 0 mm 8 mps 720 mmHg 14%
    23:00 +33°C° 0 mm 9 mps 720 mmHg 16%

    17 December, Sunday

    Time Temperature Precipitation Wind Pressure Humidity
    00:00 +31°C° 0 mm 9 mps 720 mmHg 20%
    01:00 +28°C° 0 mm 9 mps 720 mmHg 24%
    02:00 +26°C° 0 mm 8 mps 720 mmHg 28%
    03:00 +24°C° 0 mm 8 mps 720 mmHg 32%
    04:00 +23°C° 0 mm 7 mps 720 mmHg 36%
    05:00 +21°C° 0 mm 7 mps 720 mmHg 39%
    06:00 +22°C° 0 mm 7 mps 721 mmHg 38%
    07:00 +22°C° 0 mm 8 mps 721 mmHg 37%
    08:00 +23°C° 0 mm 8 mps 722 mmHg 36%
    09:00 +26°C° 0 mm 9 mps 722 mmHg 31%
    10:00 +28°C° 0 mm 9 mps 722 mmHg 27%
    11:00 +31°C° 0 mm 10 mps 721 mmHg 22%
    12:00 +32°C° 0 mm 10 mps 721 mmHg 22%
    13:00 +32°C° 0 mm 11 mps 720 mmHg 22%
    14:00 +33°C° 0 mm 11 mps 720 mmHg 22%
    15:00 +32°C° 0 mm 11 mps 720 mmHg 22%
    16:00 +32°C° 0 mm 11 mps 720 mmHg 23%
    17:00 +31°C° 0 mm 11 mps 720 mmHg 24%
    18:00 +28°C° 0 mm 11 mps 720 mmHg 28%
    19:00 +26°C° 0 mm 11 mps 721 mmHg 32%
    20:00 +22°C° 0 mm 11 mps 721 mmHg 36%
    21:00 +21°C° 0 mm 10 mps 721 mmHg 36%
    22:00 +19°C° 0 mm 10 mps 722 mmHg 36%
    23:00 +18°C° 0 mm 10 mps 722 mmHg 36%

    18 December, Monday

    Time Temperature Precipitation Wind Pressure Humidity
    00:00 +17°C° 0 mm 9 mps 722 mmHg 38%
    01:00 +16°C° 0 mm 9 mps 721 mmHg 39%
    02:00 +15°C° 0 mm 9 mps 721 mmHg 40%
    03:00 +15°C° 0 mm 9 mps 721 mmHg 44%
    04:00 +13°C° 0 mm 9 mps 721 mmHg 47%
    05:00 +13°C° 0 mm 9 mps 721 mmHg 50%
    06:00 +14°C° 0 mm 10 mps 721 mmHg 47%
    07:00 +16°C° 0 mm 11 mps 721 mmHg 45%
    08:00 +18°C° 0 mm 11 mps 721 mmHg 42%
    09:00 +19°C° 0 mm 12 mps 721 mmHg 40%
    10:00 +20°C° 0 mm 13 mps 721 mmHg 38%
    11:00 +22°C° 0 mm 14 mps 721 mmHg 36%
    12:00 +22°C° 0.1 mm 15 mps 721 mmHg 39%
    13:00 +20°C° 0.1 mm 15 mps 720 mmHg 42%
    14:00 +19°C° 0.1 mm 16 mps 720 mmHg 45%
    15:00 +19°C° 0.1 mm 15 mps 721 mmHg 47%
    16:00 +19°C° 0.1 mm 15 mps 721 mmHg 49%
    17:00 +18°C° 0.1 mm 14 mps 721 mmHg 50%
    18:00 +18°C° 0 mm 12 mps 722 mmHg 50%
    19:00 +18°C° 0 mm 11 mps 723 mmHg 50%
    20:00 +17°C° 0 mm 9 mps 723 mmHg 50%
    21:00 +17°C° 0 mm 8 mps 723 mmHg 53%
    22:00 +17°C° 0 mm 8 mps 724 mmHg 56%
    23:00 +16°C° 0 mm 8 mps 724 mmHg 59%

    19 December, Tuesday

    Time Temperature Precipitation Wind Pressure Humidity
    00:00 +16°C° 0 mm 7 mps 724 mmHg 59%
    01:00 +15°C° 0 mm 7 mps 724 mmHg 60%
    02:00 +15°C° 0 mm 6 mps 724 mmHg 60%
    03:00 +14°C° 0 mm 6 mps 725 mmHg 62%
    04:00 +13°C° 0 mm 6 mps 725 mmHg 65%
    05:00 +13°C° 0 mm 5 mps 726 mmHg 67%
    06:00 +14°C° 0 mm 6 mps 726 mmHg 59%
    07:00 +16°C° 0 mm 6 mps 727 mmHg 52%
    08:00 +17°C° 0 mm 7 mps 728 mmHg 45%
    09:00 +20°C° 0 mm 7 mps 728 mmHg 43%
    10:00 +21°C° 0 mm 7 mps 728 mmHg 41%
    11:00 +22°C° 0 mm 7 mps 728 mmHg 40%
    12:00 +23°C° 0 mm 7 mps 728 mmHg 37%
    13:00 +24°C° 0 mm 7 mps 728 mmHg 34%
    14:00 +26°C° 0 mm 7 mps 727 mmHg 32%
    15:00 +26°C° 0 mm 7 mps 728 mmHg 31%
    16:00 +27°C° 0 mm 7 mps 728 mmHg 30%
    17:00 +27°C° 0 mm 6 mps 728 mmHg 29%
    18:00 +26°C° 0 mm 6 mps 729 mmHg 32%
    19:00 +24°C° 0 mm 6 mps 729 mmHg 34%
    20:00 +23°C° 0 mm 5 mps 730 mmHg 36%
    21:00 +22°C° 0 mm 6 mps 730 mmHg 40%
    22:00 +21°C° 0 mm 6 mps 731 mmHg 43%
    23:00 +20°C° 0 mm 6 mps 731 mmHg 47%
    Show more